Alexandria, MN

9:11 AM CDT on September 21, 2019 (GMT -0500)
Chandler

Weather History for KAXN - August, 2019

Change the Weather History Date:

Sunday, August 25, 2019

  Actual Average Record
Temperature  
Mean Temperature 65 °F -  
Max Temperature 71 °F 78 °F 95 °F (1970)
Min Temperature 60 °F 59 °F 45 °F (1950)
Growing Degree Days 15 (Base 50)    
Moisture  
Dew Point 59 °F    
Average Humidity 80    
Maximum Humidity 84    
Minimum Humidity 63    
Precipitation  
Precipitation 0.19 in - - ()
Sea Level Pressure  
Sea Level Pressure 29.93 in    
Wind  
Wind Speed 11 mph ()    
Max Wind Speed 21 mph    
Max Gust Speed 26 mph    
Visibility 7.8 miles    
Events Rain    
Averages and records for this station are not official NWS values.
T = Trace of Precipitation, MM = Missing Value Source: Averaged Metar Reports

Daily Weather History Graph

Daily Weather History Graph

Search for Another Location

Airport or City:

Astronomy

Aug. 25, 2019 Rise Set
Actual Time 6:33 AM CDT 8:12 PM CDT
Civil Twilight 6:02 AM CDT 8:44 PM CDT
Nautical Twilight 5:23 AM CDT 9:22 PM CDT
Astronomical Twilight 4:42 AM CDT 10:03 PM CDT
Moon 12:59 AM CDT (8/25) 4:46 PM CDT (8/25)
Length of Visible Light 14h 42m
Length of Day
13h 39m
Waning Crescent, 29% of the Moon is Illuminated
Aug 25
Waning Crescent
Aug 30
New
Sep 5
First Quarter
Sep 13
Full
Sep 21
Last Quarter

Hourly Weather History & Observations

Time (CDT) Temp. Dew Point Humidity Pressure Visibility Wind Dir Wind Speed Gust Speed Precip Events Conditions
12:53 AM 62.1 °F 53.1 °F 72% 30.06 in 10.0 mi SE 9.2 mph - N/A   Clear
1:53 AM 61.0 °F 54.0 °F 78% 30.04 in 10.0 mi SE 10.4 mph - N/A   Clear
2:53 AM 61.0 °F 54.0 °F 78% 30.01 in 10.0 mi SE 9.2 mph - N/A   Clear
3:53 AM 61.0 °F 54.0 °F 78% 30.00 in 10.0 mi SE 9.2 mph - N/A   Clear
4:53 AM 61.0 °F 54.0 °F 78% 29.99 in 10.0 mi SE 9.2 mph - N/A   Clear
5:53 AM 60.1 °F 54.0 °F 80% 29.98 in 10.0 mi SE 8.1 mph - N/A   Clear
6:53 AM 62.1 °F 55.0 °F 78% 29.98 in 10.0 mi SSE 11.5 mph - N/A   Scattered Clouds
7:53 AM 62.1 °F 55.0 °F 78% 29.97 in 10.0 mi SE 10.4 mph - N/A   Mostly Cloudy
8:53 AM 64.9 °F 55.9 °F 73% 29.98 in 10.0 mi SSE 15.0 mph - N/A   Overcast
9:53 AM 66.9 °F 57.0 °F 70% 29.96 in 10.0 mi SSE 13.8 mph - N/A   Scattered Clouds
10:53 AM 70.0 °F 57.0 °F 63% 29.96 in 10.0 mi SSE 17.3 mph 26.5 mph N/A   Overcast
11:03 AM 68.0 °F 57.0 °F 68% 29.97 in 10.0 mi SSE 18.4 mph - N/A   Overcast
11:53 AM 66.9 °F 57.0 °F 70% 29.96 in 10.0 mi SSE 13.8 mph 23.0 mph N/A   Overcast
12:53 PM 64.9 °F 60.1 °F 84% 29.96 in 1.8 mi SSE 12.7 mph - 0.02 in Rain Light Rain
1:02 PM 64.0 °F 59.0 °F 84% 29.96 in 1.8 mi SSE 16.1 mph 24.2 mph 0.02 in Rain Light Rain
1:05 PM 64.0 °F 59.0 °F 84% 29.96 in 2.0 mi SSE 16.1 mph 24.2 mph 0.02 in Rain Light Rain
1:17 PM 64.0 °F 59.0 °F 84% 29.95 in 1.2 mi SSE 15.0 mph 23.0 mph 0.05 in Rain Rain
1:28 PM 64.0 °F 59.0 °F 84% 29.95 in 1.5 mi SSE 16.1 mph - 0.09 in Rain Rain
1:37 PM 64.0 °F 59.0 °F 84% 29.95 in 1.8 mi SSE 20.7 mph 26.5 mph 0.11 in Rain Light Rain
1:53 PM 64.0 °F 59.0 °F 84% 29.95 in 2.0 mi SE 15.0 mph - 0.13 in Rain Light Rain
2:03 PM 64.0 °F 59.0 °F 84% 29.95 in 5.0 mi SE 12.7 mph 23.0 mph 0.00 in Rain Light Rain
2:31 PM 64.9 °F 60.1 °F 84% 29.94 in 2.0 mi SE 17.3 mph 25.3 mph 0.02 in Rain Light Rain
2:53 PM 64.9 °F 60.1 °F 84% 29.94 in 3.0 mi SE 16.1 mph 23.0 mph 0.03 in   Haze
3:08 PM 64.9 °F 60.1 °F 84% 29.93 in 2.5 mi SE 15.0 mph - N/A   Haze
3:20 PM 64.9 °F 60.1 °F 84% 29.93 in 3.0 mi SE 15.0 mph 24.2 mph N/A   Haze
3:53 PM 64.9 °F 60.1 °F 84% 29.93 in 7.0 mi SE 12.7 mph - N/A   Overcast
4:53 PM 64.9 °F 60.1 °F 84% 29.91 in 9.0 mi SE 12.7 mph - 0.01 in Rain Light Rain
5:19 PM 66.0 °F 60.1 °F 81% 29.90 in 10.0 mi SE 12.7 mph 21.9 mph 0.00 in   Overcast
5:30 PM 66.0 °F 60.1 °F 81% 29.90 in 10.0 mi SE 12.7 mph 23.0 mph 0.00 in   Overcast
5:37 PM 66.0 °F 60.1 °F 81% 29.89 in 10.0 mi SE 11.5 mph - 0.00 in   Overcast
5:53 PM 66.0 °F 61.0 °F 84% 29.89 in 10.0 mi SE 10.4 mph - 0.00 in   Overcast
6:04 PM 66.0 °F 61.0 °F 84% 29.89 in 10.0 mi SE 13.8 mph 23.0 mph N/A   Overcast
6:53 PM 66.9 °F 61.0 °F 81% 29.88 in 10.0 mi SE 13.8 mph - N/A   Overcast
7:34 PM 66.9 °F 61.0 °F 81% 29.88 in 10.0 mi SE 11.5 mph - N/A   Overcast
7:41 PM 66.9 °F 61.0 °F 81% 29.88 in 10.0 mi SE 10.4 mph - N/A   Overcast
7:53 PM 66.9 °F 61.0 °F 81% 29.86 in 10.0 mi SE 11.5 mph - N/A   Overcast
8:21 PM 66.0 °F 61.0 °F 84% 29.86 in 10.0 mi SE 9.2 mph - N/A   Overcast
8:53 PM 66.0 °F 60.1 °F 81% 29.86 in 10.0 mi SE 9.2 mph - N/A   Overcast
9:53 PM 66.0 °F 60.1 °F 81% 29.87 in 10.0 mi SE 10.4 mph - N/A   Overcast
10:26 PM 66.0 °F 60.1 °F 81% 29.87 in 10.0 mi SE 10.4 mph - N/A   Overcast
10:53 PM 66.0 °F 60.1 °F 81% 29.86 in 10.0 mi SSE 10.4 mph - N/A   Overcast
11:10 PM 66.0 °F 60.1 °F 81% 29.86 in 10.0 mi SE 10.4 mph - N/A   Overcast
11:53 PM 66.0 °F 60.1 °F 81% 29.85 in 10.0 mi SSE 9.2 mph - N/A   Overcast